TimeEDT,TemperatureF,Dew PointF,Humidity,Sea Level PressureIn,VisibilityMPH,Wind Direction,Wind SpeedMPH,Gust SpeedMPH,PrecipitationIn,Events,Conditions,WindDirDegrees,DateUTC
12:15 AM,55.6,55.0,98,30.06,7.0,SSE,4.6,-,0.01,Rain,Light Rain,150,2013-04-29 04:15:00
12:35 AM,55.8,55.4,99,30.06,5.0,SSE,3.5,-,0.02,Rain,Light Rain,160,2013-04-29 04:35:00
12:55 AM,55.8,55.4,99,30.06,7.0,SE,3.5,-,0.04,Rain,Light Rain,140,2013-04-29 04:55:00
1:15 AM,55.9,55.4,98,30.07,5.0,Calm,Calm,-,0.02,Rain,Rain,0,2013-04-29 05:15:00
1:35 AM,55.8,55.4,99,30.07,2.5,Calm,Calm,-,0.11,Rain,Heavy Rain,0,2013-04-29 05:35:00
1:55 AM,55.8,55.4,99,30.06,2.5,Calm,Calm,-,0.19,Rain,Heavy Rain,0,2013-04-29 05:55:00
2:15 AM,55.6,55.4,99,30.06,4.0,Calm,Calm,-,0.04,Rain,Rain,0,2013-04-29 06:15:00
2:35 AM,55.2,54.9,99,30.06,5.0,North,3.5,-,0.10,Rain,Heavy Rain,360,2013-04-29 06:35:00
2:55 AM,54.5,54.1,99,30.05,5.0,Calm,Calm,-,0.13,Rain,Rain,0,2013-04-29 06:55:00
3:15 AM,54.1,54.0,99,30.05,5.0,Calm,Calm,-,0.02,Rain,Rain,0,2013-04-29 07:15:00
3:35 AM,54.0,53.8,99,30.05,5.0,North,3.5,-,0.05,Rain,Heavy Rain,360,2013-04-29 07:35:00
3:55 AM,53.6,53.6,100,30.05,5.0,North,3.5,-,0.08,Rain,Rain,10,2013-04-29 07:55:00
4:15 AM,53.2,53.1,99,30.05,7.0,Calm,Calm,-,0.01,Rain,Light Rain,0,2013-04-29 08:15:00
4:35 AM,53.2,52.9,99,30.04,7.0,Calm,Calm,-,0.02,Rain,Rain,0,2013-04-29 08:35:00
4:55 AM,53.1,52.7,99,30.04,7.0,Calm,Calm,-,0.02,Rain,Light Rain,0,2013-04-29 08:55:00
5:15 AM,53.1,52.9,99,30.04,7.0,Calm,Calm,-,N/A,,Drizzle,0,2013-04-29 09:15:00
5:35 AM,53.1,52.9,99,30.04,7.0,Calm,Calm,-,N/A,,Drizzle,0,2013-04-29 09:35:00
5:55 AM,52.9,52.7,99,30.04,7.0,Calm,Calm,-,N/A,Rain,Light Rain,0,2013-04-29 09:55:00
6:15 AM,52.9,52.7,99,30.04,7.0,Calm,Calm,-,N/A,,Overcast,0,2013-04-29 10:15:00
6:35 AM,52.7,52.7,100,30.05,7.0,Calm,Calm,-,N/A,Rain,Rain,0,2013-04-29 10:35:00
6:55 AM,52.7,52.7,100,30.06,7.0,Calm,Calm,-,0.01,Rain,Light Rain,0,2013-04-29 10:55:00
7:15 AM,52.9,52.7,99,30.06,5.0,Calm,Calm,-,N/A,Rain,Light Rain,0,2013-04-29 11:15:00
7:35 AM,52.9,52.7,99,30.07,5.0,Calm,Calm,-,0.01,Rain,Light Rain,0,2013-04-29 11:35:00
7:55 AM,53.1,52.9,99,30.07,5.0,Calm,Calm,-,0.02,Rain,Light Rain,0,2013-04-29 11:55:00
8:15 AM,53.1,52.9,99,30.07,7.0,Calm,Calm,-,0.01,Rain,Light Rain,0,2013-04-29 12:15:00
8:35 AM,53.2,53.1,99,30.07,10.0,Calm,Calm,-,0.01,,Overcast,0,2013-04-29 12:35:00
8:55 AM,53.6,53.4,99,30.07,10.0,Calm,Calm,-,0.01,,Overcast,0,2013-04-29 12:55:00
9:15 AM,54.5,54.0,98,30.07,10.0,Calm,Calm,-,N/A,,Overcast,0,2013-04-29 13:15:00
9:35 AM,54.7,53.6,96,30.07,10.0,Calm,Calm,-,N/A,,Overcast,0,2013-04-29 13:35:00
9:55 AM,54.7,53.6,96,30.07,10.0,Calm,Calm,-,N/A,,Overcast,0,2013-04-29 13:55:00
10:15 AM,55.0,53.8,96,30.06,10.0,Calm,Calm,-,N/A,,Overcast,0,2013-04-29 14:15:00
10:35 AM,55.2,53.6,94,30.07,10.0,North,3.5,-,N/A,,Overcast,10,2013-04-29 14:35:00
10:55 AM,55.4,53.6,94,30.07,10.0,Calm,Calm,-,N/A,,Overcast,0,2013-04-29 14:55:00
11:15 AM,55.9,54.1,94,30.07,10.0,Calm,Calm,-,N/A,,Overcast,0,2013-04-29 15:15:00
11:35 AM,56.3,54.1,92,30.07,10.0,Calm,Calm,-,N/A,,Overcast,0,2013-04-29 15:35:00
11:55 AM,57.0,54.1,90,30.07,10.0,Calm,Calm,-,N/A,,Overcast,0,2013-04-29 15:55:00
12:15 PM,57.9,55.2,91,30.07,10.0,Calm,Calm,-,N/A,,Overcast,0,2013-04-29 16:15:00
12:35 PM,57.7,54.7,90,30.06,10.0,Calm,Calm,-,N/A,,Overcast,0,2013-04-29 16:35:00
12:55 PM,58.6,54.7,87,30.06,10.0,Calm,Calm,-,N/A,,Overcast,0,2013-04-29 16:55:00
1:15 PM,59.5,55.2,86,30.06,10.0,Calm,Calm,-,N/A,,Overcast,0,2013-04-29 17:15:00
1:35 PM,61.0,55.9,83,30.05,10.0,Calm,Calm,-,N/A,,Overcast,0,2013-04-29 17:35:00
1:55 PM,61.7,56.7,84,30.05,10.0,SE,3.5,-,N/A,,Overcast,130,2013-04-29 17:55:00
2:15 PM,62.2,56.7,82,30.04,10.0,SSE,4.6,-,N/A,,Overcast,150,2013-04-29 18:15:00
2:35 PM,61.7,56.7,84,30.04,10.0,SSE,3.5,-,N/A,,Overcast,150,2013-04-29 18:35:00
2:55 PM,62.4,57.0,82,30.04,10.0,SSE,3.5,-,N/A,,Overcast,150,2013-04-29 18:55:00
3:15 PM,62.2,57.0,83,30.03,10.0,South,6.9,-,N/A,,Mostly Cloudy,170,2013-04-29 19:15:00
3:35 PM,63.1,56.7,79,30.02,10.0,Calm,Calm,-,N/A,,Scattered Clouds,0,2013-04-29 19:35:00
3:55 PM,65.7,57.6,75,30.02,10.0,SSW,3.5,-,N/A,,Scattered Clouds,210,2013-04-29 19:55:00
4:15 PM,65.7,56.8,73,30.01,10.0,SSW,3.5,-,N/A,,Mostly Cloudy,210,2013-04-29 20:15:00
4:35 PM,65.7,56.5,72,30.00,10.0,Calm,Calm,-,N/A,,Mostly Cloudy,0,2013-04-29 20:35:00
4:55 PM,66.2,56.3,70,30.00,10.0,Calm,Calm,-,N/A,,Mostly Cloudy,0,2013-04-29 20:55:00
5:15 PM,66.2,56.3,70,29.99,10.0,Calm,Calm,-,N/A,,Overcast,0,2013-04-29 21:15:00
5:35 PM,67.1,57.0,70,29.99,10.0,Calm,Calm,-,N/A,,Overcast,0,2013-04-29 21:35:00
5:55 PM,66.6,57.6,73,29.99,10.0,WSW,3.5,-,N/A,,Mostly Cloudy,250,2013-04-29 21:55:00
6:15 PM,67.3,57.2,70,29.99,10.0,Calm,Calm,-,N/A,,Mostly Cloudy,0,2013-04-29 22:15:00
6:35 PM,66.9,57.4,71,29.99,10.0,Calm,Calm,-,N/A,,Mostly Cloudy,0,2013-04-29 22:35:00
6:55 PM,65.3,58.5,78,30.00,10.0,Calm,Calm,-,N/A,,Overcast,0,2013-04-29 22:55:00
7:15 PM,65.3,58.1,77,30.00,10.0,Calm,Calm,-,N/A,,Overcast,0,2013-04-29 23:15:00
7:35 PM,64.0,58.1,81,30.00,10.0,Calm,Calm,-,N/A,,Mostly Cloudy,0,2013-04-29 23:35:00
7:55 PM,60.8,58.5,92,30.00,10.0,Calm,Calm,-,N/A,,Mostly Cloudy,0,2013-04-29 23:55:00
8:15 PM,59.9,58.5,95,30.01,10.0,Calm,Calm,-,N/A,,Overcast,0,2013-04-30 00:15:00
8:35 PM,58.5,57.6,97,30.02,7.0,Calm,Calm,-,N/A,,Overcast,0,2013-04-30 00:35:00
8:55 PM,57.2,56.7,98,30.03,3.0,Calm,Calm,-,N/A,,Scattered Clouds,0,2013-04-30 00:55:00
9:15 PM,56.5,55.9,98,30.03,3.0,Calm,Calm,-,N/A,,Clear,0,2013-04-30 01:15:00
9:35 PM,55.0,54.9,99,30.03,2.5,Calm,Calm,-,N/A,,Clear,0,2013-04-30 01:35:00
9:55 PM,55.0,54.9,99,30.04,1.2,Calm,Calm,-,N/A,,Scattered Clouds,0,2013-04-30 01:55:00
10:15 PM,54.9,54.9,100,30.04,3.0,Calm,Calm,-,N/A,,Scattered Clouds,0,2013-04-30 02:15:00
10:35 PM,53.1,53.1,100,30.04,1.5,Calm,Calm,-,N/A,,Mist,0,2013-04-30 02:35:00
10:55 PM,53.6,53.6,100,30.04,1.8,Calm,Calm,-,N/A,,Mostly Cloudy,0,2013-04-30 02:55:00
11:15 PM,52.2,52.2,100,30.04,2.5,Calm,Calm,-,N/A,,Scattered Clouds,0,2013-04-30 03:15:00
11:35 PM,52.5,52.5,100,30.04,1.2,Calm,Calm,-,N/A,,Mist,0,2013-04-30 03:35:00
11:55 PM,52.5,52.5,100,30.05,1.2,Calm,Calm,-,N/A,,Mostly Cloudy,0,2013-04-30 03:55:00